Zurück zum Katalog

DELTA 1 DEB

AktivLEO
NORAD 3811·DEBRIS·🇺🇸 United States

Gestartet Dec 15, 1968 von Vandenberg Space Force Base

Loading…

Nächste Überflüge (nächste 24 Stunden)

TLE

AktuellSource: Space-Track

Epoche: Sep 14, 2026, 07:24 UTC

1 03811U 68114C   26257.30841560 -.00000038  00000-0  52892-4 0  9994
2 03811 101.9086 201.8588 0137748 345.3780 170.8515 12.76397524689592

Verfolge DELTA 1 DEB in Echtzeit mit AllMySat

Download on the App Store